Stations météo

Publicité
Pau, France (7610): Température de l'air & dewpoint: 21.06.2019 12:00:00 - 27.06.2019 12:00:00 (CEST)Pau, France (7610): Température de l'air 5cm: 21.06.2019 12:00:00 - 27.06.2019 12:00:00 (CEST)Pau, France (7610): Température de l'air -20cm & Température de l'air -100cm: 21.06.2019 12:00:00 - 27.06.2019 12:00:00 (CEST)Pau, France (7610): Vitesse du vent & gusts: 21.06.2019 12:00:00 - 27.06.2019 12:00:00 (CEST)Pau, France (7610): Direction du vent: 21.06.2019 12:00:00 - 27.06.2019 12:00:00 (CEST)Pau, France (7610): reduced air pressure: 21.06.2019 12:00:00 - 27.06.2019 12:00:00 (CEST)Pau, France (7610): visibility: 21.06.2019 12:00:00 - 27.06.2019 12:00:00 (CEST)Pau, France (7610): Ensoleillement: 21.06.2019 12:00:00 - 27.06.2019 12:00:00 (CEST)Pau, France (7610): Quantités de précipitations: 21.06.2019 12:00:00 - 27.06.2019 12:00:00 (CEST)
Date & Time tt [°C] td [°C] tt 5cm [°C] tt -20cm [°C] tt -100cm [°C] ff [km/h] ff [knt] fx [km/h] fx [knt] dd ppp [hPa] vv [km] sd [min] rr [mm]
27.06.2019 12:00:00 - - - - - - - - - - - - - -
27.06.2019 11:00:00 26,0 20,6 30,2 21,6 17,5 5 3 15 8 E 1018,0 11 60 0,0
27.06.2019 10:00:00 23,3 19,0 24,0 21,6 17,6 5 3 13 7 ESE 1018,6 11 60 0,0
27.06.2019 09:00:00 19,8 18,3 20,7 21,6 17,5 7 4 15 8 ESE 1019,1 8 6 0,0
27.06.2019 08:00:00 18,5 17,5 18,0 21,7 17,5 5 3 12 6 E 1019,0 7 24 0,0
27.06.2019 07:00:00 17,8 17,5 13,5 21,7 17,5 0 0 10 5 N 1018,9 7 0 0,0
27.06.2019 06:00:00 17,5 16,7 14,2 21,7 17,5 6 3 11 6 W 1018,8 6 0 0,0
27.06.2019 05:00:00 18,4 17,4 17,0 21,8 17,5 9 5 22 12 W 1018,7 7 0 0,0
27.06.2019 04:00:00 19,5 19,0 19,3 21,7 17,5 10 6 23 12 W 1018,4 2,7 0 0,0
27.06.2019 03:00:00 20,4 19,7 20,0 21,7 17,5 15 8 29 16 W 1018,1 3,8 0 0,0
27.06.2019 02:00:00 23,5 22,1 20,8 21,7 17,5 26 14 34 19 WNW 1016,8 6 0 0,0
27.06.2019 01:00:00 24,4 23,4 21,0 21,7 17,5 6 4 16 9 SE 1014,9 5 0 0,0
27.06.2019 00:00:00 25,3 24,1 21,5 21,6 17,5 8 4 13 7 SE 1014,5 7 0 0,0
26.06.2019 23:00:00 26,5 24,7 21,4 21,6 17,5 5 3 18 10 SE 1014,1 9 0 0,0
26.06.2019 22:00:00 27,9 24,9 21,8 21,5 17,5 5 3 12 7 W 1013,2 11 18 0,0
26.06.2019 21:00:00 31,1 25,5 28,0 21,4 17,5 7 4 12 6 NNW 1012,5 17 60 0,0
26.06.2019 20:00:00 34,8 22,8 32,6 21,3 17,5 4 2 15 8 E 1011,9 24 60 0,0
26.06.2019 19:00:00 34,1 23,5 34,5 21,1 17,4 4 2 18 10 WSW 1011,8 19 60 0,0
26.06.2019 18:00:00 33,1 25,6 35,7 21,0 17,4 8 5 21 11 WSW 1012,4 18 60 0,0
26.06.2019 17:00:00 32,4 24,7 36,8 20,9 17,4 13 7 23 13 W 1012,8 19 60 0,0
26.06.2019 16:00:00 33,5 21,6 39,7 20,8 17,4 8 5 23 12 W 1013,3 23 60 0,0
26.06.2019 15:00:00 31,3 21,2 41,4 20,8 17,4 6 4 23 13 NE 1014,0 15 60 0,0
26.06.2019 14:00:00 28,8 21,8 42,6 20,8 17,4 6 3 23 12 ENE 1014,7 11 60 0,0
26.06.2019 13:00:00 26,1 22,0 25,6 20,8 17,4 8 4 17 9 ENE 1015,2 10 54 0,0
26.06.2019 12:00:00 21,1 19,9 22,4 20,8 17,4 7 4 13 7 WSW 1016,2 7 0 0,0
26.06.2019 11:00:00 19,7 19,4 21,9 20,9 17,4 5 3 11 6 W 1016,4 4,8 0 0,0
26.06.2019 10:00:00 19,0 19,0 19,5 20,9 17,4 4 2 11 6 N 1016,7 0,9 0 0,0
26.06.2019 09:00:00 18,5 18,5 18,8 20,9 17,4 3 2 8 4 ENE 1016,6 0,3 0 0,0
26.06.2019 08:00:00 18,3 18,3 18,6 20,9 17,4 4 2 8 4 SW 1016,8 0,2 0 0,2
26.06.2019 07:00:00 18,3 18,3 18,4 20,9 17,4 3 2 10 6 W 1016,5 0,1 0 0,0
26.06.2019 06:00:00 18,4 18,4 18,4 21,0 17,4 5 3 11 6 WSW 1016,1 0,1 0 0,0
26.06.2019 05:00:00 18,5 18,3 18,5 21,0 17,4 4 2 10 5 W 1015,9 0,1 0 0,0
26.06.2019 04:00:00 18,7 18,5 18,6 21,0 17,3 8 4 14 8 W 1015,9 0,3 0 0,0
26.06.2019 03:00:00 19,0 18,5 16,8 21,0 17,4 9 5 19 10 W 1016,0 2,3 0 0,0
26.06.2019 02:00:00 19,5 18,7 17,4 21,0 17,3 9 5 12 6 W 1015,9 10 0 0,0
26.06.2019 01:00:00 21,1 19,7 18,1 21,0 17,3 8 4 13 7 W 1015,9 11 0 0,0
26.06.2019 00:00:00 22,6 20,3 17,6 21,0 17,3 0 0 8 4 N 1016,0 13 0 0,0
25.06.2019 23:00:00 23,3 20,6 18,3 21,0 17,3 3 2 8 5 NW 1015,9 14 0 0,0
25.06.2019 22:00:00 25,3 20,3 20,0 20,9 17,3 6 3 9 5 N 1015,4 19 18 0,0
25.06.2019 21:00:00 27,8 20,4 23,9 20,8 17,3 8 4 18 10 NE 1015,0 20 54 0,0
25.06.2019 20:00:00 28,5 20,2 27,5 20,7 17,3 9 5 20 11 ENE 1015,0 19 55 0,0
25.06.2019 19:00:00 29,0 20,7 31,3 20,6 17,3 11 6 26 14 NE 1014,8 18 58 0,0
25.06.2019 18:00:00 28,9 20,1 34,1 20,5 17,3 14 7 30 16 ENE 1015,1 15 60 0,0
25.06.2019 17:00:00 28,9 20,6 37,2 20,4 17,3 13 7 26 14 NE 1015,4 16 58 0,0
25.06.2019 16:00:00 28,6 20,1 36,0 20,3 17,3 12 7 25 14 E 1015,7 19 58 0,0
25.06.2019 15:00:00 27,6 19,4 35,3 20,2 17,3 13 7 31 17 NE 1016,1 14 48 0,0
25.06.2019 14:00:00 27,2 20,0 38,6 20,2 17,3 10 6 26 14 E 1016,2 14 57 0,0
25.06.2019 13:00:00 26,5 19,6 31,6 20,2 17,3 11 6 27 15 ENE 1016,5 15 35 0,0
25.06.2019 12:00:00 25,0 18,9 33,0 20,2 17,3 9 5 19 10 E 1016,7 15 47 0,0
25.06.2019 11:00:00 24,9 19,0 29,2 20,2 17,3 4 2 16 9 NE 1016,7 18 56 0,0
25.06.2019 10:00:00 23,8 17,3 24,5 20,2 17,3 4 2 9 5 ENE 1016,8 18 50 0,0
25.06.2019 09:00:00 21,2 17,8 21,5 20,3 17,3 4 2 9 5 ENE 1016,9 16 39 0,0
25.06.2019 08:00:00 19,0 17,1 16,9 20,3 17,3 3 1 8 4 ENE 1016,8 14 18 0,0
25.06.2019 07:00:00 17,8 16,5 16,3 20,3 17,3 5 3 9 5 E 1016,9 14 0 0,0
25.06.2019 06:00:00 18,1 16,4 16,7 20,4 17,2 7 4 10 5 E 1016,6 16 0 0,0
25.06.2019 05:00:00 18,3 16,3 17,5 20,4 17,3 4 2 7 4 ESE 1016,6 18 0 0,0
25.06.2019 04:00:00 18,1 16,3 17,4 20,4 17,2 4 2 11 6 S 1016,5 19 0 0,0
25.06.2019 03:00:00 17,9 16,2 17,4 20,4 17,2 11 6 23 13 W 1016,7 19 0 0,0
25.06.2019 02:00:00 18,1 16,3 17,8 20,4 17,2 16 8 24 13 W 1016,6 17 0 0,0
25.06.2019 01:00:00 18,4 16,7 18,0 20,4 17,2 18 10 29 16 W 1016,2 11 0 0,0
25.06.2019 00:00:00 18,6 16,9 18,2 20,4 17,2 20 11 31 17 WNW 1015,9 13 0 0,0
24.06.2019 23:00:00 19,0 17,7 18,7 20,3 17,2 23 12 44 24 WNW 1015,0 9 0 0,0
24.06.2019 22:00:00 22,5 20,2 20,6 20,3 17,2 11 6 16 8 WNW 1013,4 9 0 0,0
24.06.2019 21:00:00 24,8 20,7 22,2 20,2 17,2 7 4 10 5 NNE 1012,2 13 21 0,0
24.06.2019 20:00:00 25,5 20,5 24,3 20,1 17,2 8 5 25 14 ENE 1012,0 12 16 0,0
24.06.2019 19:00:00 26,4 20,9 26,5 20,1 17,2 15 8 23 13 NE 1011,7 10 22 0,0
24.06.2019 18:00:00 27,2 19,8 30,9 20,0 17,2 8 4 17 9 NNW 1012,0 19 31 0,0
24.06.2019 17:00:00 26,4 20,9 30,4 20,0 17,2 14 8 28 15 E 1011,7 14 13 0,0
24.06.2019 16:00:00 26,6 20,0 37,4 19,9 17,2 8 5 19 10 E 1012,6 13 54 0,0
24.06.2019 15:00:00 24,5 19,3 30,4 19,9 17,2 5 3 16 9 ENE 1013,2 11 23 0,0
24.06.2019 14:00:00 23,1 18,4 30,8 19,9 17,2 7 4 18 10 E 1013,3 11 16 0,0
24.06.2019 13:00:00 23,3 18,6 28,4 19,9 17,2 5 3 16 9 ESE 1013,3 17 29 0,0
24.06.2019 12:00:00 20,6 17,4 21,3 20,0 17,2 5 3 15 8 SSE 1013,4 12 0 0,0
24.06.2019 11:00:00 18,9 16,9 19,4 20,0 17,2 5 3 13 7 S 1013,7 13 0 0,0
24.06.2019 10:00:00 18,0 16,8 18,3 20,0 17,2 6 3 16 8 SSW 1013,7 7 0 0,0
24.06.2019 09:00:00 17,5 16,7 17,3 20,1 17,2 12 7 20 11 W 1013,8 7 0 0,0
24.06.2019 08:00:00 17,2 16,9 16,9 20,1 17,2 14 7 24 13 W 1013,7 4,1 0 0,0
24.06.2019 07:00:00 16,9 16,7 16,7 20,1 17,2 17 9 23 13 W 1013,4 3,9 0 0,0
24.06.2019 06:00:00 16,8 16,6 13,0 20,2 17,2 11 6 17 9 W 1012,5 4,8 0 0,0
24.06.2019 05:00:00 16,7 16,2 13,4 20,2 17,2 5 3 8 4 WNW 1012,0 3,8 0 0,0
24.06.2019 04:00:00 17,3 16,7 14,2 20,2 17,2 2 1 5 3 NE 1011,9 6 0 0,0
24.06.2019 03:00:00 17,8 16,7 15,6 20,2 17,2 3 2 11 6 WSW 1012,4 14 0 0,0
24.06.2019 02:00:00 18,2 17,4 17,3 20,2 17,2 10 6 17 9 WNW 1013,1 11 0 0,0
24.06.2019 01:00:00 19,1 17,6 18,0 20,1 17,2 11 6 17 9 WNW 1013,1 15 0 0,0
24.06.2019 00:00:00 20,6 18,4 19,1 20,1 17,2 10 6 16 8 W 1013,0 22 0 0,0
23.06.2019 23:00:00 22,1 19,1 20,8 20,0 17,2 12 7 21 11 W 1012,8 22 0 0,0
23.06.2019 22:00:00 24,7 19,8 22,6 19,9 17,2 11 6 20 11 NW 1011,8 28 10 0,0
23.06.2019 21:00:00 28,0 19,5 24,4 19,8 17,2 3 2 16 9 NE 1011,3 18 3 0,0
23.06.2019 20:00:00 29,3 19,0 27,2 19,7 17,2 9 5 22 12 NNE 1011,1 38 33 0,0
23.06.2019 19:00:00 30,4 19,7 31,0 19,6 17,2 13 7 24 13 NE 1010,9 30 60 0,0
23.06.2019 18:00:00 30,6 19,0 31,8 19,4 17,2 11 6 19 11 NNE 1010,9 37 42 0,0
23.06.2019 17:00:00 29,8 17,9 31,2 19,2 17,2 11 6 22 12 NNE 1011,0 31 15 0,0
23.06.2019 16:00:00 30,4 18,5 36,1 19,1 17,2 11 6 29 16 NNE 1010,8 20 56 0,0
23.06.2019 15:00:00 29,6 19,3 37,0 19,1 17,2 11 6 23 12 N 1011,0 31 60 0,0
23.06.2019 14:00:00 28,3 19,2 35,8 19,0 17,2 14 7 27 15 NW 1011,4 19 60 0,0
23.06.2019 13:00:00 28,0 19,0 32,3 19,0 17,2 16 9 27 15 NW 1011,4 40 54 0,0
23.06.2019 12:00:00 27,6 16,6 33,9 19,0 17,2 16 9 31 17 NNW 1010,9 46 58 0,0
23.06.2019 11:00:00 27,0 16,3 32,7 19,0 17,2 6 4 15 8 E 1010,5 20 58 0,0
23.06.2019 10:00:00 23,2 15,0 19,6 19,0 17,2 4 2 16 9 SSE 1011,0 41 38 0,0
23.06.2019 09:00:00 20,0 14,1 19,0 19,1 17,2 5 3 18 10 S 1010,8 47 1 0,0
23.06.2019 08:00:00 19,0 14,5 12,9 19,1 17,2 4 2 10 5 SE 1010,4 40 32 0,0
23.06.2019 07:00:00 16,2 13,9 11,5 19,2 17,2 5 3 11 6 SSE 1010,6 39 0 0,0
23.06.2019 06:00:00 15,5 14,0 11,5 19,2 17,2 4 2 8 4 SSE 1010,7 41 0 0,0
23.06.2019 05:00:00 16,4 14,4 12,1 19,2 17,2 5 3 7 4 ESE 1010,6 37 0 0,0
23.06.2019 04:00:00 16,2 14,2 11,8 19,2 17,2 4 2 6 3 E 1011,1 38 0 0,0
23.06.2019 03:00:00 17,1 14,0 12,5 19,3 17,2 4 2 10 5 ESE 1011,8 38 0 0,0
23.06.2019 02:00:00 18,4 13,7 13,5 19,3 17,2 8 4 13 7 ESE 1012,1 41 0 0,0
23.06.2019 01:00:00 19,2 13,6 14,8 19,2 17,2 4 2 13 7 ESE 1012,4 44 0 0,0
23.06.2019 00:00:00 20,3 13,5 16,1 19,2 17,2 9 5 22 12 ESE 1012,9 45 0 0,0
22.06.2019 23:00:00 21,1 14,0 17,0 19,2 17,2 11 6 21 11 E 1013,1 43 0 0,0
22.06.2019 22:00:00 21,5 14,6 17,2 19,1 17,2 8 5 17 9 E 1013,0 19 14 0,0
22.06.2019 21:00:00 23,1 14,4 19,6 19,0 17,2 10 5 28 15 E 1012,8 53 27 0,0
22.06.2019 20:00:00 24,6 14,4 25,1 18,9 17,2 16 9 26 14 E 1012,8 46 60 0,0
22.06.2019 19:00:00 25,1 14,8 25,9 18,8 17,2 14 8 25 14 ENE 1013,1 57 47 0,0
22.06.2019 18:00:00 24,4 14,2 26,3 18,8 17,2 11 6 24 13 ENE 1013,6 31 40 0,0
22.06.2019 17:00:00 24,7 12,9 30,5 18,7 17,2 14 7 27 15 E 1014,2 34 55 0,0
22.06.2019 16:00:00 23,9 13,7 29,4 18,6 17,2 15 8 33 18 ENE 1014,5 20 53 0,0
22.06.2019 15:00:00 23,0 14,0 27,0 18,6 17,2 16 9 31 17 E 1015,3 30 49 0,0
22.06.2019 14:00:00 21,7 14,1 27,6 18,5 17,2 15 8 29 16 ENE 1016,2 31 41 0,0
22.06.2019 13:00:00 20,6 14,5 25,0 18,5 17,2 13 7 29 16 E 1017,0 20 35 0,0
22.06.2019 12:00:00 20,1 14,2 26,3 18,5 17,2 10 6 24 13 ENE 1017,7 22 41 0,0
22.06.2019 11:00:00 19,8 14,6 25,3 18,6 17,2 10 5 20 11 ENE 1017,7 23 50 0,0
22.06.2019 10:00:00 18,5 14,4 22,9 18,6 17,2 7 4 16 9 E 1018,1 20 57 0,0
22.06.2019 09:00:00 16,3 14,3 16,0 18,7 17,2 5 3 10 5 E 1018,5 20 60 0,0
22.06.2019 08:00:00 13,2 13,2 9,8 18,8 17,2 4 2 6 4 SSE 1018,8 6 46 0,0
22.06.2019 07:00:00 10,9 10,9 6,8 18,8 17,2 3 2 8 4 SE 1019,4 0,2 7 0,2
22.06.2019 06:00:00 10,6 10,3 6,7 18,9 17,2 0 0 5 3 N 1019,5 0,1 0 0,0
22.06.2019 05:00:00 11,3 11,0 7,7 19,0 17,2 4 2 6 3 NE 1019,5 0,2 0 0,0
22.06.2019 04:00:00 12,2 12,0 8,6 19,0 17,1 3 2 6 3 ENE 1019,7 0,1 0 0,0
22.06.2019 03:00:00 12,9 12,4 8,8 19,0 17,1 3 2 5 3 E 1020,3 0,3 0 0,0
22.06.2019 02:00:00 13,9 12,9 9,7 19,1 17,2 2 1 5 3 S 1021,0 11 0 0,0
22.06.2019 01:00:00 15,0 13,7 13,9 19,1 17,1 2 1 6 4 S 1021,2 14 0 0,0
22.06.2019 00:00:00 15,2 14,1 14,4 19,1 17,1 4 2 8 4 SW 1021,4 26 0 0,0
21.06.2019 23:00:00 15,3 14,0 14,5 19,1 17,1 5 3 11 6 SW 1021,3 20 0 0,0
21.06.2019 22:00:00 15,6 14,0 14,8 19,2 17,1 5 3 11 6 SSW 1021,0 10 13 0,0
21.06.2019 21:00:00 15,9 14,1 15,6 19,2 17,1 4 2 15 8 SSW 1020,5 31 10 0,0
21.06.2019 20:00:00 16,2 14,4 16,2 19,2 17,1 9 5 16 9 SW 1020,5 32 2 0,0
21.06.2019 19:00:00 16,0 14,0 16,6 19,3 17,1 10 5 19 10 SSW 1020,3 33 0 0,0
21.06.2019 18:00:00 15,6 14,0 15,4 19,3 17,1 7 4 19 11 SSW 1020,3 35 0 0,0
21.06.2019 17:00:00 14,8 13,5 14,6 19,3 17,1 13 7 27 14 WSW 1020,4 21 0 0,0
21.06.2019 16:00:00 14,4 13,6 14,7 19,4 17,1 15 8 24 13 WSW 1020,7 8 0 0,0
21.06.2019 15:00:00 14,1 13,5 14,5 19,4 17,0 14 7 29 16 WSW 1020,7 3,6 0 0,4
21.06.2019 14:00:00 14,3 13,8 14,4 19,5 17,1 18 10 29 15 WNW 1020,7 4,2 0 1,0
21.06.2019 13:00:00 14,0 13,5 14,3 19,5 17,1 15 8 27 15 WSW 1020,5 8 0 0,2
21.06.2019 12:00:00 13,8 13,3 13,6 19,6 17,1 18 10 29 15 W 1020,2 7 0 0,8

tt = Température de l'air
td = dewpoint
tt 5cm = Température de l'air 5cm
tt -20cm = Température de l'air -20cm
tt -100cm = Température de l'air -100cm
ff = Vitesse du vent
fx = gusts
dd = Direction du vent
ppp = reduced air pressure
vv = visibility
sd = Ensoleillement
rr = Quantités de précipitations

stations d'obs. à proximité